"Pseudo-MPEC" for C3ZR422

Created 2020 Nov 23 13:07:16 UT using Find_Orb

Click here for an explanation of pseudo-MPECs

 
 Astrometry: 
     C3ZR422  C2020 11 20.51684513 00 41.21 +49 57 01.1    ~BKDM 21.24GVNEOCPG96
     C3ZR422  C2020 11 20.52823813 00 41.37 +49 56 46.5    ~BKDM 21.36GVNEOCPG96
     C3ZR422  C2020 11 20.53392813 00 41.47 +49 56 38.8    ~BKDM 22.11GVNEOCPG96
     C3ZR422 1C2020 11 21.15887 13 00 53.57 +49 43 12.7    ~BL97 20.7 VVNEOCP033
     C3ZR422 1C2020 11 21.16246 13 00 53.60 +49 43 08.6    ~BL97 20.5 VVNEOCP033
     C3ZR422 1C2020 11 21.16605 13 00 53.63 +49 43 04.2    ~BL97 20.4 VVNEOCP033
     C3ZR422 KC2020 11 21.50936113 01 00.18 +49 35 43.3    ~BLCb 21.37GVNEOCPV06
     C3ZR422 KC2020 11 21.51371413 01 00.21 +49 35 37.7    ~BLCb 20.81GVNEOCPV06
     C3ZR422 KC2020 11 21.51798913 01 00.31 +49 35 32.3    ~BLCb 21.16GVNEOCPV06
     C3ZR422 bC2020 11 22e[9$YbhX*doQ)bV-LYh$%nEB;XPu)YrInf'((o:f3cLNIR.lWg:VL01
     C3ZR422 bC2020 11 22/Vh9+rsXAADHILq8*'0F-_J`mpq40'C@p]Lh0*cQ(eUT6sF@TW@pL01
     C3ZR422 bC2020 11 22Dc:Mw%.tE$1KFA/cs7N(EUl8/#YKsW'6L.gQ=avuMBn1_AIhIn,$L01
     C3ZR422 bC2020 11 22:Eh=Xmj5ua]G8civ6kr^W%E)t,bhQ*`/wPxLAstrometry1`0XR0L01
     C3ZR422 bC2020 11 22uu`1@XJwjP53PuO?LY%5W/4)@N9SZ$(VdnPCMgn*[ZR1S$jXn!B(L01
     C3ZR422 KC2020 11 22.47278213 01 16.84 +49 14 52.7    ~BMBb 20.65GVNEOCPV06
     C3ZR422 KC2020 11 22.47436813 01 16.89 +49 14 51.1    ~BMBb 21.43GVNEOCPV06
     C3ZR422 KC2020 11 23+0xojRAFQdX+2bamw9$PIcfJ+n/GX.qHdI#+redacted;o.I3fTEH21
     C3ZR422 KC2020 11 23)lUK0Mts9xXa.?QBZyfI-56MD[0`MjoR!CLN6K-RY3KOdG/FOA-?H21
     C3ZR422 KC2020 11 23W[c8k#click?\rr7oxheree`#r86_c?#1for)explanationA1XbH21
     C3ZR422 KC2020 11 23.46335113 01 31.87 +48 53 18.2    ~BNBb 21.07GVNEOCPV06
     C3ZR422 KC2020 11 23.46493513 01 31.96 +48 53 16.2    ~BNBb 21.38GVNEOCPV06
     C3ZR422 KC2020 11 23.46651813 01 31.99 +48 53 14.5    ~BNBb 21.05GVNEOCPV06

Station data:
(033) Karl Schwarzschild Observatory, Tautenburg  (N50.980140 E11.711240)
   Germany. 1.3-m Schmidt.
(G96) Mt. Lemmon Survey  (N32.442754 W110.788720)  US/Arizona.  Observers T.
   A. Pruyne, B. M. Africano, E. J. Christensen, G. A. Farneth, D. C. Fuls,
   A. R. Gibbs, A. D. Grauer, H. Gröller, J. A. Johnson, R. A. Kowalski, S.
   M. Larson, G. J. Leonard, D. Rankin, R. L. Seaman, F. C. Shelly. 1.5-m
   reflector + 10K CCD.
(H21) Astronomical Research Observatory, Westfield  (N39.483057 W87.968270)
   US/Illinois. 0.76-m f/3.0 astrograph + CCD.
(L01) Višnjan Observatory, Tičan  (N45.290900 E13.749300)  Croatia.
   Observers K. Korlević, E. Pettarin. Measurer E. Pettarin. 1.0-m f/2.9
   reflector + CCD.
(V06) Catalina Sky Survey-Kuiper  (N32.416847 W110.732550)  US/Arizona.
   Observers T. A. Pruyne, B. M. Africano, E. J. Christensen, G. A. Farneth,
   D. C. Fuls, A. R. Gibbs, A. D. Grauer, H. Gröller, J. A. Johnson, R. A.
   Kowalski, S. M. Larson, G. J. Leonard, D. Rankin, R. L. Seaman, F. C.
   Shelly. 1.55-m reflector + CCD.

Orbital elements:  C3ZR422
   Perihelion 2021 Jan 18.561421 +/- 0.677 TT = 13:28:26 (JD 2459233.061421)
Epoch 2020 Nov 23.0 TT = JDT 2459176.5   Earth MOID: 0.1570   AutoNEOCP
M 342.88327179 +/- 4.6              (J2000 ecliptic)
n   0.30262196 +/- 0.0831           Peri.  187.15629 +/- 0.8
a   2.19719745 +/- 0.425            Node   304.36454 +/- 0.6
e   0.4817238 +/- 0.0919            Incl.   61.83518 +/- 1.6
P   3.26                   H 18.9   G  0.15   U 11.1  
q 1.13875500 +/- 0.0121    Q 3.25563989 +/- 1.04
From 22 observations 2020 Nov. 20-23; mean residual 0".31
Residuals in arcseconds: 
201120 G96  .35+  .34+    201121 V06  .07-  .15+    201123 H21  .58+  .19+    
201120 G96  .05-  .03+    201122 L01  .32+  .34+    201123 H21  .47+  .40+    
201120 G96  .05-  .52-    201122 L01  .19-  .19-    201123 H21  .13+  .10+    
201121 033  .23+  .33-    201122 L01  .06+  .51-    201123 V06  1.0-  .35-    
201121 033  .08-  .12+    201122 L01  .01-  .10-    201123 V06  .33-  .33-    
201121 033  .40-  .26+    201122 L01  .02+  .14+    201123 V06  .24-  .00     
201121 V06  .00   .25+    201122 V06  .06+  .36-    
201121 V06  .39-  .15+    201122 V06  .32+  .05+    

Ephemerides (geocentric):
Date (UTC) HH   RA              Dec         delta   r     elong  mag " sig PA
---- -- -- --  -------------   -----------  ------ ------ -----  --- ---- ---
2020 11 23 13  13 01 32.374   +48 51 37.50  1.0321 1.2927  79.6 21.3 .198 169
2020 11 23 14  13 01 32.960   +48 50 42.78  1.0315 1.2925  79.6 21.3 .214 164
2020 11 23 15  13 01 33.542   +48 49 48.03  1.0309 1.2923  79.6 21.3 .231 160
2020 11 23 16  13 01 34.121   +48 48 53.27  1.0303 1.2921  79.6 21.3 .249 156
2020 11 23 17  13 01 34.697   +48 47 58.49  1.0297 1.2919  79.6 21.3 .270 153
2020 11 23 18  13 01 35.269   +48 47 03.68  1.0291 1.2917  79.6 21.3 .291 150
2020 11 23 19  13 01 35.837   +48 46 08.86  1.0285 1.2915  79.7 21.3 .314 148
2020 11 23 20  13 01 36.402   +48 45 14.01  1.0279 1.2913  79.7 21.3 .337 145
2020 11 23 21  13 01 36.963   +48 44 19.14  1.0273 1.2911  79.7 21.3 .362 143
2020 11 23 22  13 01 37.520   +48 43 24.25  1.0267 1.2908  79.7 21.3 .387 142
2020 11 23 23  13 01 38.074   +48 42 29.34  1.0261 1.2906  79.7 21.3 .414 140
2020 11 24 00  13 01 38.625   +48 41 34.41  1.0255 1.2904  79.7 21.3 .441 139
2020 11 24 01  13 01 39.172   +48 40 39.45  1.0249 1.2902  79.7 21.3 .469 137
2020 11 24 02  13 01 39.715   +48 39 44.48  1.0243 1.2900  79.8 21.3 .498 136
2020 11 24 03  13 01 40.254   +48 38 49.48  1.0237 1.2898  79.8 21.3 .528 135
2020 11 24 04  13 01 40.791   +48 37 54.46  1.0231 1.2896  79.8 21.3 .558 134
2020 11 24 05  13 01 41.323   +48 36 59.42  1.0225 1.2894  79.8 21.3 .589 133
2020 11 24 06  13 01 41.852   +48 36 04.35  1.0219 1.2892  79.8 21.3 .621 132
2020 11 24 07  13 01 42.377   +48 35 09.27  1.0213 1.2890  79.8 21.3 .654 132
2020 11 24 08  13 01 42.899   +48 34 14.16  1.0207 1.2888  79.8 21.3 .687 131
2020 11 24 09  13 01 43.417   +48 33 19.03  1.0201 1.2886  79.9 21.3 .721 130
2020 11 24 10  13 01 43.931   +48 32 23.88  1.0195 1.2884  79.9 21.3 .756 130
2020 11 24 11  13 01 44.442   +48 31 28.70  1.0189 1.2882  79.9 21.3 .792 129
2020 11 24 12  13 01 44.949   +48 30 33.50  1.0183 1.2880  79.9 21.3 .828 129
2020 11 24 13  13 01 45.453   +48 29 38.28  1.0177 1.2878  79.9 21.3 .865 128
2020 11 24 14  13 01 45.953   +48 28 43.04  1.0171 1.2876  79.9 21.3 .902 128
2020 11 24 15  13 01 46.449   +48 27 47.77  1.0165 1.2874  79.9 21.3 .941 127
2020 11 24 16  13 01 46.942   +48 26 52.48  1.0159 1.2872  80.0 21.3 .980 127
2020 11 24 17  13 01 47.431   +48 25 57.17  1.0153 1.2870  80.0 21.3 1.02 127
2020 11 24 18  13 01 47.916   +48 25 01.83  1.0147 1.2868  80.0 21.3 1.06 126
2020 11 24 19  13 01 48.398   +48 24 06.47  1.0141 1.2866  80.0 21.3 1.10 126
2020 11 24 20  13 01 48.876   +48 23 11.09  1.0135 1.2864  80.0 21.3 1.14 126
2020 11 24 21  13 01 49.351   +48 22 15.68  1.0129 1.2862  80.0 21.3 1.19 125
2020 11 24 22  13 01 49.821   +48 21 20.25  1.0123 1.2860  80.0 21.3 1.23 125
2020 11 24 23  13 01 50.289   +48 20 24.80  1.0117 1.2858  80.1 21.3 1.27 125
2020 11 25 00  13 01 50.752   +48 19 29.32  1.0111 1.2856  80.1 21.3 1.32 124
2020 11 25 01  13 01 51.212   +48 18 33.82  1.0105 1.2854  80.1 21.3 1.36 124
2020 11 25 02  13 01 51.668   +48 17 38.29  1.0099 1.2852  80.1 21.3 1.41 124
2020 11 25 03  13 01 52.121   +48 16 42.74  1.0093 1.2849  80.1 21.3 1.46 124
2020 11 25 04  13 01 52.569   +48 15 47.16  1.0087 1.2847  80.1 21.3 1.50 124
2020 11 25 05  13 01 53.014   +48 14 51.56  1.0081 1.2845  80.2 21.3 1.55 123
2020 11 25 06  13 01 53.456   +48 13 55.94  1.0075 1.2843  80.2 21.3 1.60 123
2020 11 25 07  13 01 53.894   +48 13 00.29  1.0069 1.2841  80.2 21.3 1.65 123
2020 11 25 08  13 01 54.328   +48 12 04.62  1.0063 1.2839  80.2 21.3 1.70 123
2020 11 25 09  13 01 54.758   +48 11 08.92  1.0057 1.2837  80.2 21.3 1.75 123
2020 11 25 10  13 01 55.185   +48 10 13.20  1.0051 1.2835  80.2 21.3 1.80 123
2020 11 25 11  13 01 55.608   +48 09 17.45  1.0045 1.2833  80.2 21.3 1.86 122
2020 11 25 12  13 01 56.027   +48 08 21.68  1.0038 1.2831  80.3 21.3 1.91 122